Location: Krakow
(50.0830°N, 19.9170°E)
Time: 12:48:45
(UTC+02:00)

Tiros 1 - Pass Details

Date: 10 February 2023
Orbit: 627 x 662 km, 48.4° (Epoch: 26 March)

Event Time Altitude Azimuth Distance (km) Brightness Sun altitude
Rises 01:09:25 0° 274° (W) 2,913 - -51.3°
Reaches altitude 10° 01:11:45 10° 271° (W) 2,007 - -51.1°
Maximum altitude 01:16:19 67° 190° (S) 687 - -50.7°
Drops below altitude 10° 01:20:56 10° 108° (ESE) 2,020 - -50.3°
Sets 01:23:17 0° 106° (ESE) 2,934 - -50.1°
